Location: Mexico
(19.4000°N, 99.1500°W)
Time: 22:29:16
(UTC-06:00)

ISS - Pass Details

Date: 17 November 2019
Orbit: 412 x 421 km, 51.6° (Epoch: 12 November)

Event Time Altitude Azimuth Distance (km) Brightness Sun altitude
Rises 18:17:53 0° 191° (S) 2,334 0.5 -5.4°
Reaches altitude 10° 18:20:21 10° 173° (S) 1,476 -0.8 -6.0°
Maximum altitude 18:22:49 19° 125° (SE) 1,039 -2.1 -6.5°
Drops below altitude 10° 18:25:17 10° 77° (ENE) 1,483 -1.7 -7.1°
Enters shadow 18:25:31 - 74° (ENE) 1,553 -1.6 -7.1°
